Alta, CA

9:01 AM PST on February 27, 2017 (GMT -0800)
Blue Canyon-Nyack

Weather History for KBLU - March, 2013

Change the Weather History Date:

Thursday, March 21, 2013

  Actual Average Record
Temperature  
Mean Temperature 41 °F -  
Max Temperature 48 °F 48 °F 69 °F (1960)
Min Temperature 34 °F 34 °F 16 °F (1952)
Degree Days  
Heating Degree Days 24    
Moisture  
Dew Point 36 °F    
Average Humidity 88    
Maximum Humidity 100    
Minimum Humidity 49    
Precipitation  
Precipitation 0.00 in - - ()
Sea Level Pressure  
Sea Level Pressure 30.04 in    
Wind  
Wind Speed 6 mph (SW)    
Max Wind Speed 10 mph    
Max Gust Speed -    
Visibility 6 miles    
Events Fog , Rain    
Averages and records for this station are not official NWS values.
T = Trace of Precipitation, MM = Missing Value Source: NWS Daily Summary

Daily Weather History Graph

Daily Weather History Graph

Search for Another Location

Airport or City:

Trip Planner

Search our weather history database for the weather conditions in past years. The results will help you decide how hot, cold, wet, or windy it might be!

Date:

Astronomy

Mar. 21, 2013 Rise Set
Actual Time 7:04 AM PDT 7:16 PM PDT
Civil Twilight 6:37 AM PDT 7:42 PM PDT
Nautical Twilight 6:06 AM PDT 8:14 PM PDT
Astronomical Twilight 5:34 AM PDT 8:46 PM PDT
Moon 1:52 PM PDT (3/21) 3:27 AM PDT (3/21)
Length of Visible Light 13h 05m
Length of Day
12h 12m
Waxing Gibbous, 69% of the Moon is Illuminated
Mar 21
Waxing Gibbous
Mar 27
Full
Apr 2
Last Quarter
Apr 10
New
Apr 18
First Quarter

Hourly Weather History & Observations

Time (PDT) Temp. Windchill Dew Point Humidity Pressure Visibility Wind Dir Wind Speed Gust Speed Precip Events Conditions
12:03 AM 39.2 °F 32.5 °F 39.2 °F 100% 30.09 in 0.5 mi SSW 10.4 mph - 0.00 in Fog Fog
12:52 AM 39.0 °F 34.8 °F 37.9 °F 96% 30.07 in 0.8 mi Variable 5.8 mph - 0.00 in Rain Light Rain
1:52 AM 37.9 °F 32.1 °F 37.9 °F 100% 30.05 in 0.5 mi South 8.1 mph - 0.00 in Fog Fog
2:03 AM 37.4 °F 30.8 °F 37.4 °F 100% 30.09 in 1.2 mi South 9.2 mph - N/A   Overcast
2:17 AM 37.4 °F 30.8 °F 37.4 °F 100% 30.09 in 2.0 mi South 9.2 mph - N/A   Overcast
2:24 AM 37.4 °F 30.3 °F 37.4 °F 100% 30.09 in 1.2 mi South 10.4 mph - N/A   Overcast
2:34 AM 37.4 °F 30.8 °F 37.4 °F 100% 30.09 in 0.5 mi South 9.2 mph - N/A Fog Fog
2:52 AM 37.9 °F 33.5 °F 37.9 °F 100% 30.06 in 0.5 mi South 5.8 mph - N/A Fog Fog
3:18 AM 37.4 °F 33.8 °F 37.4 °F 100% 30.08 in 1.0 mi South 4.6 mph - N/A   Overcast
3:26 AM 37.4 °F 30.8 °F 37.4 °F 100% 30.08 in 0.5 mi South 9.2 mph - N/A Fog Fog
3:52 AM 37.0 °F 32.4 °F 37.0 °F 100% 30.06 in 1.2 mi South 5.8 mph - N/A   Overcast
4:08 AM 37.4 °F - 37.4 °F 100% 30.07 in 0.5 mi Calm Calm - N/A Fog Fog
4:28 AM 37.4 °F - 37.4 °F 100% 30.08 in 1.0 mi Calm Calm - N/A   Mist
4:40 AM 37.4 °F - 37.4 °F 100% 30.07 in 2.0 mi Calm Calm - N/A   Overcast
4:49 AM 37.4 °F - 37.4 °F 100% 30.07 in 3.0 mi Calm Calm - N/A   Overcast
4:52 AM 37.0 °F - 36.0 °F 96% 30.04 in 2.0 mi Calm Calm - N/A   Overcast
4:59 AM 37.4 °F - 35.6 °F 93% 30.07 in 1.2 mi Calm Calm - N/A   Overcast
5:02 AM 37.4 °F - 35.6 °F 93% 30.08 in 0.8 mi Calm Calm - N/A   Overcast
5:11 AM 37.4 °F - 35.6 °F 93% 30.08 in 0.5 mi Calm Calm - N/A Fog Fog
5:18 AM 37.4 °F - 35.6 °F 93% 30.08 in 1.5 mi Calm Calm - N/A   Overcast
5:20 AM 37.4 °F - 35.6 °F 93% 30.08 in 3.0 mi Calm Calm - N/A   Overcast
5:32 AM 35.6 °F - 35.6 °F 100% 30.08 in 10.0 mi Calm Calm - N/A   Mostly Cloudy
5:45 AM 35.6 °F - 33.8 °F 93% 30.07 in 5.0 mi Calm Calm - N/A   Scattered Clouds
5:52 AM 35.1 °F 32.2 °F 35.1 °F 100% 30.04 in 6.0 mi ESE 3.5 mph - N/A   Scattered Clouds
6:52 AM 34.0 °F 31.0 °F 33.1 °F 96% 30.05 in 7.0 mi East 3.5 mph - N/A   Clear
7:52 AM 35.1 °F - 34.0 °F 96% 30.04 in 10.0 mi Calm Calm - N/A   Clear
8:52 AM 39.0 °F - 36.0 °F 89% 30.04 in 10.0 mi Calm Calm - N/A   Clear
9:52 AM 41.0 °F 37.1 °F 35.1 °F 79% 30.03 in 10.0 mi Variable 5.8 mph - N/A   Partly Cloudy
10:52 AM 44.1 °F 41.5 °F 34.0 °F 68% 30.02 in 10.0 mi SW 4.6 mph - N/A   Scattered Clouds
11:22 AM 44.6 °F 42.2 °F 35.6 °F 71% 30.07 in 10.0 mi Variable 4.6 mph - N/A   Mostly Cloudy
11:36 AM 42.8 °F 40.1 °F 33.8 °F 70% 30.08 in 10.0 mi Variable 4.6 mph - N/A   Scattered Clouds
11:52 AM 44.1 °F 40.8 °F 35.1 °F 71% 30.03 in 10.0 mi SSW 5.8 mph - N/A   Clear
12:52 PM 46.0 °F 41.9 °F 35.1 °F 66% 30.01 in 10.0 mi West 8.1 mph - N/A   Clear
1:52 PM 46.9 °F - 35.1 °F 63% 30.00 in 10.0 mi West 8.1 mph - N/A   Scattered Clouds
2:52 PM 48.0 °F - 33.1 °F 56% 29.98 in 10.0 mi WSW 8.1 mph - N/A   Clear
3:52 PM 48.0 °F - 39.0 °F 71% 29.97 in 10.0 mi Variable 6.9 mph - N/A   Clear
4:52 PM 46.0 °F 43.1 °F 37.9 °F 73% 29.97 in 10.0 mi West 5.8 mph - N/A   Partly Cloudy
5:52 PM 45.0 °F 42.6 °F 39.0 °F 80% 29.99 in 10.0 mi West 4.6 mph - N/A   Partly Cloudy
6:14 PM 44.6 °F 41.4 °F 39.2 °F 81% 30.02 in 10.0 mi WSW 5.8 mph - N/A   Mostly Cloudy
6:38 PM 44.6 °F 41.4 °F 39.2 °F 81% 30.02 in 10.0 mi West 5.8 mph - N/A   Overcast
6:52 PM 44.1 °F 41.5 °F 37.9 °F 79% 29.99 in 10.0 mi WNW 4.6 mph - N/A   Overcast
7:37 PM 42.8 °F 38.6 °F 37.4 °F 81% 30.04 in 10.0 mi NW 6.9 mph - N/A   Mostly Cloudy
7:52 PM 41.0 °F 37.1 °F 37.0 °F 86% 30.01 in 10.0 mi NNW 5.8 mph - N/A   Scattered Clouds
8:24 PM 39.2 °F 35.9 °F 35.6 °F 87% 30.04 in 10.0 mi North 4.6 mph - N/A   Partly Cloudy
8:52 PM 39.9 °F 37.8 °F 37.0 °F 89% 30.00 in 10.0 mi NE 3.5 mph - N/A   Clear
9:52 PM 39.9 °F 37.8 °F 37.0 °F 89% 29.99 in 10.0 mi NE 3.5 mph - N/A   Clear
10:52 PM 39.9 °F 35.8 °F 34.0 °F 79% 30.00 in 10.0 mi NE 5.8 mph - N/A   Clear
11:52 PM 39.9 °F 33.9 °F 21.9 °F 49% 29.99 in 10.0 mi NE 9.2 mph - N/A   Clear